This is the latest recevied weather packets stored in our database for station/object N3TTT-13. If no packets are shown the sender has not sent any weather packets the latest 10 day(s).
| Time | Temp. | Humidity | Pressure | Rain* | Wind** | Luminosity | Snow |
|---|---|---|---|---|---|---|---|
| 1777307844 | 17.78° C | 53% | 1024.4 hPa | 0 mm | - | 718 W/m² | - |
| 1777307543 | 18.33° C | 52% | 1024.5 hPa | 0 mm | - | 727 W/m² | - |
| 1777307239 | 18.33° C | 56% | 1024.6 hPa | 0 mm | - | 701 W/m² | - |
| 1777306936 | 17.78° C | 57% | 1024.5 hPa | 0 mm | - | 673 W/m² | - |
| 1777306633 | 17.78° C | 59% | 1024.5 hPa | 0 mm | - | 706 W/m² | - |
| 1777306329 | 17.78° C | 61% | 1024.7 hPa | 0 mm | - | 714 W/m² | - |
| 1777306024 | 17.78° C | 57% | 1024.6 hPa | 0 mm | - | 718 W/m² | - |
| 1777305721 | 17.78° C | 58% | 1024.5 hPa | 0 mm | - | 734 W/m² | - |
| 1777305417 | 17.78° C | 58% | 1024.5 hPa | 0 mm | - | 709 W/m² | - |
| 1777305111 | 17.78° C | 57% | 1024.9 hPa | 0 mm | - | 702 W/m² | - |
| 1777304806 | 17.22° C | 57% | 1025 hPa | 0 mm | - | 689 W/m² | - |
| 1777304504 | 17.22° C | 64% | 1024.8 hPa | 0 mm | - | 690 W/m² | - |
| 1777304202 | 17.78° C | 60% | 1025 hPa | 0 mm | - | 728 W/m² | - |
| 1777303898 | 17.22° C | 58% | 1025 hPa | 0 mm | - | 752 W/m² | - |
| 1777303595 | 17.22° C | 60% | 1025 hPa | 0 mm | - | 761 W/m² | - |
| 1777303293 | 17.78° C | 59% | 1025.1 hPa | 0 mm | - | 754 W/m² | - |
| 1777302990 | 17.22° C | 58% | 1025 hPa | 0 mm | - | 786 W/m² | - |
| 1777302686 | 16.67° C | 59% | 1025.3 hPa | 0 mm | - | 802 W/m² | - |
| 1777302385 | 16.67° C | 59% | 1025.1 hPa | 0 mm | - | 787 W/m² | - |
| 1777302083 | 16.11° C | 61% | 1025.2 hPa | 0 mm | - | 821 W/m² | - |
| 1777301780 | 17.22° C | 61% | 1025.1 hPa | 0 mm | - | 799 W/m² | - |
| 1777301478 | 17.22° C | 55% | 1025.2 hPa | 0 mm | - | 819 W/m² | - |
| 1777301174 | 16.67° C | 58% | 1025.2 hPa | 0 mm | - | 765 W/m² | - |
| 1777300871 | 16.11° C | 58% | 1025.4 hPa | 0 mm | - | 777 W/m² | - |
| 1777300570 | 15.56° C | 59% | 1025.4 hPa | 0 mm | - | 733 W/m² | - |
* Rain latest hour (hover to see other rain measurements)
** Current wind speed in m/s (hover to see current wind gust speed)